Location: York
(31.8935°S, 116.7682°E)
Time: 18:56:21
(UTC+08:00)

deb Explorer IX - Pass Details

Date: 26 September 2022
Orbit: 533 x 1057 km, 38.8° (Epoch: 30 November)

Event Time Altitude Azimuth Distance (km) Brightness Sun altitude
Rises 00:56:25 0° 247° (WSW) 2,787 - -54.9°
Reaches altitude 10° 00:58:52 10° 238° (WSW) 1,844 - -54.6°
Maximum altitude 01:02:46 37° 169° (S) 846 - -54.3°
Drops below altitude 10° 01:06:34 10° 100° (E) 1,796 - -53.9°
Sets 01:08:56 0° 91° (E) 2,704 - -53.7°
